Regional Weather Roundup
Issued by NWS Cleveland, OH

Home | Current Version | Previous Version | Graphics & Text | Print | Product List | Glossary On
Versions: 1 2 3 4 5 6 7 8 9 10 11 12 13 14 15 16 17 18 19 20 21 22 23 24 25 26 27 28 29 30 31 32 33 34 35 36 37 38 39 40 41 42 43 44 45 46 47 48 49 50
000
ASUS41 KCLE 221702
RWRCLE
OHIO REGIONAL WEATHER ROUNDUP
NATIONAL WEATHER SERVICE CLEVELAND, OH
100 PM EDT WED MAR 22 2017

NOTE: "FAIR" INDICATES FEW OR NO CLOUDS BELOW 12,000 FEET WITH NO
SIGNIFICANT WEATHER AND/OR OBSTRUCTIONS TO VISIBILITY.

OHZ001>008-015>018-024>027-034-035-043-044-221800-
   NORTHWEST OHIO

CITY           SKY/WX    TMP DP  RH WIND       PRES   REMARKS
DEFIANCE       SUNNY     30  13  49 N8        30.58S WCI  22
FINDLAY        MOSUNNY   32  12  43 NE16G22   30.55R WCI  21
TOLEDO EXPRESS SUNNY     31   8  38 NE10      30.56F WCI  22
TOLEDO EXEC    SUNNY     30  11  45 NE9       30.59S WCI  22
LIMA           SUNNY     30  16  56 NE12      30.54S WCI  20
$$

OHZ009>014-019>023-028>033-038-089-221800-
   NORTHEAST OHIO

CITY           SKY/WX    TMP DP  RH WIND       PRES   REMARKS
CLE-HOPKINS    PTSUNNY   31  13  47 NE12      30.56R WCI  22
CLE-LAKEFRONT  PTSUNNY   28  16  60 N13       30.55R WCI  17
CUY CO. ARPT   MOSUNNY   28  14  54 NE14G23   30.53R WCI  17
LORAIN-ELYRIA  PTSUNNY   28  13  53 N18       30.55R WCI  15
ASHTABULA      SUNNY     26  10  50 N13       30.51R WCI  15
AKRON-CANTON   MOSUNNY   33  14  45 N7        30.47R WCI  27
WOOSTER        PTSUNNY   30  16  56 N15       30.50R WCI  19
MANSFIELD      CLOUDY    30  16  56 N13       30.50R WCI  20
YOUNGSTOWN     MOSUNNY   29   8  41 N16       30.47R WCI  17
$$

OHZ042-051>053-060>062-070>072-077>081-221800-
  SOUTHWEST OHIO

CITY           SKY/WX    TMP DP  RH WIND       PRES   REMARKS
CINC-COVINGTON SUNNY     37  16  42 NE16      30.49S
CINC-LUNKEN    SUNNY     38  21  50 NE9       30.53S
HAMILTON       SUNNY     36  20  52 E10       30.53F
DAYTON         MOSUNNY   32  17  54 NE13      30.53R WCI  22
WRIGHT-PAT AFB SUNNY     33  15  47 NE10G18   30.53R WCI  24
DAYTON GENERAL SUNNY     34  17  50 NE12G18   30.50S WCI  25
WILMINGTON     MOSUNNY   32  21  64 NE16      30.50R WCI  21
$$

OHZ036-037-039>041-045>050-054>059-063>069-073>076-082>088-221800-
  CENTRAL AND SOUTHEAST OHIO

CITY           SKY/WX    TMP DP  RH WIND       PRES   REMARKS
COLUMBUS       MOSUNNY   36  16  44 NE16      30.51R
OSU AIRPORT    MOSUNNY   34  16  47 N9G18     30.51R WCI  27
BOLTON FIELD   MOSUNNY   34  16  47 N6        30.52R WCI  29
RICKENBACK AFB MOSUNNY   34  16  47 NE10      30.51S WCI  26
NEWARK         SUNNY     34  15  46 N9        30.49S WCI  27
MARION         PTSUNNY   31  15  52 NE18      30.53R WCI  19
LANCASTER      MOSUNNY   37  18  46 NE13G18   30.51R
ZANESVILLE     MOSUNNY   35  16  45 N12       30.49R WCI  27
NEW PHILLY     NOT AVBL
$$




USA.gov is the U.S. government's official web portal to all federal, state and local government web resources and services.